Theta_e
319 318 317 317 318 318 317 318 318 318 318 318 319 319 319 320 320 321 321 322 322 323 323 324 325 326 326 326 327 326 323 322 325 318 316 321 328 334 335 337 337 336 334 322 321 312 307 308 307 309 310 313 314 311 313 316 313 315 303 299 296 295 298 301 299 298 301 299 298 300 300 300 298 301 303 304 303 303 302 302 305 307 308 309 315 324 325 325
319 318 317 317 317 317 317 317 317 317 317 317 318 318 319 319 319 320 321 321 321 322 323 324 324 325 326 326 326 326 322 328 317 318 316 328 333 336 336 336 336 335 330 319 312 307 306 306 307 306 308 307 316 311 314 312 316 307 299 298 295 299 299 301 301 302 299 299 300 300 300 301 301 301 302 299 299 299 300 302 303 303 307 308 313 320 321 322
319 318 317 317 317 317 316 316 316 317 317 316 317 318 318 318 319 320 320 321 321 322 323 324 324 325 325 326 325 323 323 324 314 310 324 332 334 334 335 335 334 334 319 316 314 310 307 307 307 305 306 304 307 306 310 309 310 306 303 297 298 302 299 302 303 301 302 303 301 300 301 302 302 302 303 300 298 299 298 298 299 301 303 306 310 315 318 319
319 318 317 317 316 316 316 316 316 317 317 316 316 317 317 317 318 319 320 320 320 322 323 323 324 325 324 324 325 322 321 324 308 314 323 331 332 334 331 333 333 330 322 317 316 311 309 308 307 306 309 305 305 309 304 307 304 305 301 298 300 299 299 300 302 302 301 302 302 301 301 301 302 303 301 300 297 298 300 302 301 301 303 306 308 313 316 317
319 318 317 316 316 316 316 316 316 317 317 316 316 316 316 316 317 318 319 320 320 321 322 323 324 325 324 324 323 324 328 299 303 317 320 329 332 331 330 331 332 323 315 315 313 309 309 306 306 306 308 299 302 303 299 303 307 307 297 300 300 300 298 301 301 300 300 301 302 300 298 300 303 303 301 301 296 295 300 303 303 303 305 307 307 311 314 317
319 318 317 316 315 315 315 315 316 316 316 316 316 316 316 316 317 318 318 319 320 320 321 323 324 324 323 323 322 326 315 290 314 321 325 327 330 325 328 330 330 324 315 312 310 311 308 306 306 305 301 300 299 296 299 301 304 298 299 299 300 301 300 302 301 299 299 302 301 300 302 302 301 301 301 300 299 301 303 305 305 307 310 310 310 312 312 314
319 318 317 316 315 315 315 315 315 316 316 316 316 316 316 317 317 318 318 319 319 320 321 322 323 324 322 321 325 322 306 312 313 325 329 326 324 327 324 328 330 319 313 311 310 309 307 304 304 302 300 302 299 298 301 301 304 300 296 299 299 301 300 301 299 301 299 300 300 301 302 301 301 297 302 300 302 303 305 306 305 306 311 311 310 311 312 312
319 318 317 317 315 315 315 315 315 315 315 315 316 317 317 317 317 318 318 319 319 320 321 322 323 322 321 324 321 310 308 308 314 322 322 326 325 317 325 318 316 321 313 311 310 306 307 303 301 307 301 299 300 300 303 300 301 298 298 300 300 301 301 300 299 299 300 301 300 301 300 300 301 300 299 299 302 303 305 305 304 304 306 309 310 310 312 312
318 317 317 317 316 314 314 315 315 315 315 315 316 317 317 317 317 318 318 319 320 320 320 322 323 321 321 318 315 306 300 320 322 321 319 323 314 314 323 318 317 312 312 313 311 310 310 305 303 306 299 300 303 299 299 300 296 302 300 300 300 301 301 300 300 301 301 301 302 300 299 301 300 301 299 301 303 304 304 304 304 304 303 304 308 310 310 312
318 317 317 316 314 314 314 314 315 315 315 315 316 316 317 317 318 318 319 319 320 320 320 322 322 321 318 319 314 298 316 315 320 319 318 316 314 313 316 318 316 313 312 312 312 310 309 307 308 308 311 302 305 300 303 301 298 302 300 301 300 300 300 302 301 300 302 303 300 299 299 300 300 300 294 303 304 304 303 303 304 304 303 303 303 308 310 310
318 318 317 315 314 314 314 314 314 314 314 315 316 317 317 318 318 318 319 319 319 320 320 321 322 321 324 317 305 297 322 322 320 316 315 317 315 315 316 315 314 315 313 312 312 311 312 310 311 310 308 301 303 300 301 301 302 303 301 300 300 300 302 300 302 300 300 300 300 301 298 301 300 301 297 302 304 306 304 303 303 304 303 302 304 303 306 309
318 318 317 315 314 314 314 314 313 313 314 315 315 316 316 317 318 318 319 319 320 320 320 321 321 320 315 311 304 305 315 318 317 316 323 319 317 318 319 317 317 320 313 311 314 316 315 315 315 306 300 305 297 301 300 303 303 301 301 296 298 299 298 300 300 301 300 299 300 302 298 296 297 296 301 302 304 304 303 303 303 303 303 303 303 303 304 305
318 318 317 316 314 314 314 314 313 313 314 315 315 315 316 317 318 318 319 319 320 320 320 321 320 323 321 302 310 315 320 317 316 314 318 318 316 316 320 321 322 315 314 312 312 316 318 313 312 307 308 304 301 296 302 304 303 303 302 298 299 296 296 300 301 300 299 300 301 299 288 292 297 300 302 302 303 303 303 301 301 302 303 303 303 303 304 305
318 317 317 316 314 313 313 314 313 313 314 314 315 315 316 317 317 318 319 319 321 321 322 320 320 315 312 300 312 319 318 316 315 314 319 322 316 320 318 322 319 315 318 311 315 314 320 314 318 308 312 303 299 306 302 302 303 297 299 299 293 293 292 299 300 299 298 300 300 301 290 291 298 300 303 304 304 302 300 300 300 302 303 302 304 303 304 306
317 317 316 315 314 313 313 313 313 313 314 314 315 315 316 316 317 318 319 319 321 321 321 321 319 322 303 307 315 318 328 319 314 314 317 316 313 314 314 315 312 312 310 312 315 316 312 317 316 306 300 305 305 301 297 297 297 298 293 290 294 291 295 298 302 299 296 298 300 298 291 292 297 298 301 303 303 303 300 299 300 302 302 303 303 304 304 306
317 316 315 315 313 313 312 312 313 314 315 315 315 316 316 317 317 318 319 319 321 321 321 321 322 315 301 300 314 324 322 310 310 320 315 319 320 314 316 315 317 315 313 310 314 313 310 315 305 305 301 302 300 297 294 295 295 297 292 293 292 293 294 296 297 301 300 298 300 297 290 294 297 299 301 300 301 300 299 299 300 302 302 302 302 304 304 305
317 317 316 315 314 313 312 313 314 315 316 316 316 316 316 317 318 320 321 321 320 320 320 316 313 310 298 308 311 311 307 317 316 318 316 315 316 315 315 316 313 312 315 314 318 317 311 307 306 304 307 297 298 299 293 290 291 291 294 289 296 293 292 290 295 298 301 298 294 296 292 293 296 298 300 301 301 300 299 300 301 302 300 302 302 303 304 304
318 317 316 316 315 313 312 313 314 315 315 315 314 315 315 318 321 319 321 319 320 317 318 315 315 309 297 302 302 304 315 313 318 315 318 314 314 313 315 310 312 311 313 308 313 308 310 303 302 298 297 299 297 295 289 286 291 290 290 290 290 293 293 292 291 296 298 296 294 294 294 294 297 299 300 300 301 301 300 300 300 301 301 301 302 303 303 303
317 316 316 316 316 314 314 314 315 315 315 315 316 317 318 319 320 319 317 315 312 299 298 300 300 291 292 298 310 312 317 316 314 315 308 313 319 317 315 315 314 306 304 301 301 304 306 304 304 297 293 293 293 295 293 296 296 293 296 293 293 291 291 290 294 296 297 294 293 293 292 294 295 296 298 299 301 300 300 300 300 301 301 301 302 302 302 303
316 316 316 316 316 315 315 315 315 315 315 314 314 314 315 310 311 304 312 310 303 304 305 303 302 302 305 308 309 311 314 317 307 314 313 318 315 313 308 308 313 309 302 299 303 301 306 297 292 291 295 296 297 297 297 297 296 294 296 294 291 292 292 295 295 297 297 294 292 293 294 294 295 296 298 299 300 299 299 299 300 299 300 301 302 302 302 303
317 316 316 316 316 316 316 316 315 315 316 315 316 314 298 299 294 293 301 304 305 310 308 305 307 306 306 309 309 309 304 306 311 311 316 319 314 307 303 305 303 300 300 302 302 303 303 295 295 297 298 298 298 299 297 297 295 294 293 293 291 295 290 296 295 296 297 294 291 293 292 294 295 297 297 299 299 299 299 299 299 300 301 301 302 302 303 304
318 317 317 316 316 316 316 316 316 316 315 315 314 312 308 310 311 309 308 293 300 311 307 308 307 306 312 309 312 313 315 303 308 310 316 315 308 302 302 302 300 295 299 301 299 297 294 292 296 299 299 299 298 298 297 295 296 296 292 291 291 291 295 296 295 296 296 294 290 293 292 294 296 297 299 299 299 300 301 301 301 300 300 301 302 302 303 303
318 318 317 317 317 317 316 317 316 316 313 312 310 310 310 314 318 317 314 306 298 311 306 307 301 303 306 310 314 312 305 300 300 307 307 314 305 304 302 298 297 297 300 299 295 293 291 294 298 300 300 297 297 296 295 296 297 293 292 290 288 294 290 288 295 296 295 294 291 292 291 293 296 298 298 300 300 300 302 302 302 303 302 302 303 302 302 302
318 318 318 317 317 317 317 316 317 313 312 312 311 313 316 318 317 316 312 301 298 303 307 306 304 304 304 302 310 307 304 302 305 303 310 309 302 305 303 299 297 296 297 298 296 293 293 298 300 299 300 298 295 297 295 292 290 294 295 293 292 295 295 292 292 295 297 296 296 293 292 292 295 295 296 299 301 300 301 301 302 302 304 304 304 304 306 304
317 318 318 318 317 317 316 316 312 309 314 312 311 315 319 318 318 316 310 299 298 302 309 308 310 310 306 313 314 304 304 304 308 308 309 308 304 301 300 303 298 294 296 298 297 295 296 299 302 297 299 298 297 292 293 294 288 292 295 295 295 296 293 296 296 295 289 288 295 295 283 285 293 295 296 298 300 298 299 300 301 301 302 302 303 304 304 306
317 317 318 318 318 317 317 310 309 313 311 309 314 318 318 317 319 312 308 294 288 297 301 293 306 297 314 305 311 310 303 298 308 310 309 312 310 304 302 298 299 293 296 297 295 295 295 299 301 298 296 296 296 294 296 297 290 289 291 298 298 296 296 295 294 292 283 280 293 295 285 281 289 291 294 296 296 296 298 300 301 301 302 302 303 304 304 305
318 317 318 318 318 317 309 306 314 312 305 308 316 317 317 316 316 312 294 289 283 296 292 306 300 300 311 305 306 304 288 292 308 309 308 312 305 310 297 295 297 298 300 300 293 291 296 296 298 298 298 295 295 292 297 296 291 287 297 298 298 296 294 294 295 293 288 293 295 296 291 283 284 289 295 296 295 295 295 297 298 300 301 302 302 304 304 305
318 318 318 318 317 316 314 313 311 306 307 312 313 317 318 318 319 311 294 278 278 299 296 294 304 309 311 305 306 296 297 302 298 303 306 311 308 303 299 296 296 296 299 297 285 298 297 295 296 296 296 293 293 296 299 298 294 294 295 299 297 297 297 295 293 290 290 287 284 289 293 284 283 289 295 296 292 293 294 296 297 298 299 300 301 302 304 305
318 318 317 318 317 317 318 315 311 307 314 317 316 318 318 317 310 300 287 277 297 295 309 295 312 309 305 304 301 299 298 301 296 302 309 308 308 303 295 297 298 297 298 298 290 296 298 298 298 299 295 292 296 294 298 300 292 294 299 298 298 297 296 296 290 289 287 284 282 288 292 282 284 288 291 292 292 292 294 296 297 298 299 302 304 304 304 304
318 318 318 318 316 314 314 314 313 316 316 316 317 317 317 311 302 288 281 273 299 289 298 299 299 297 301 296 297 298 296 299 301 302 304 301 304 307 301 304 300 297 296 299 297 295 297 297 297 299 297 299 294 295 296 297 297 299 298 297 295 293 292 290 290 287 284 280 282 291 292 288 281 288 290 291 292 293 294 296 297 299 301 304 306 305 303 304
318 318 318 317 312 313 313 308 313 316 317 317 316 315 310 304 291 282 275 286 297 296 298 294 294 301 296 294 291 296 298 298 298 300 297 302 299 301 300 296 302 296 290 293 291 295 297 296 296 297 297 297 297 294 297 299 298 298 294 291 291 289 289 287 286 286 280 279 284 291 292 289 279 283 293 295 297 295 295 293 294 296 300 305 305 304 304 303
315 318 319 316 317 316 309 309 316 317 315 316 314 307 299 285 289 279 279 293 288 292 292 291 297 296 295 296 294 292 292 297 299 297 295 295 294 294 294 290 292 285 285 286 286 293 291 293 296 295 297 298 295 293 293 295 296 297 292 290 284 282 282 281 283 279 280 278 282 288 292 286 285 287 291 294 296 297 297 296 296 299 299 302 304 303 302 302
313 314 318 318 316 313 315 317 316 316 316 315 310 304 291 283 275 285 286 288 286 296 293 298 294 295 295 294 293 294 297 291 298 296 298 297 295 294 297 295 296 291 283 288 287 285 288 294 295 295 295 297 298 289 286 285 290 293 289 285 282 278 277 274 278 281 281 282 286 286 288 284 289 290 295 297 299 298 297 298 300 301 301 300 301 303 303 301
313 315 314 316 317 316 317 315 315 315 312 312 304 295 289 280 279 293 288 290 294 298 299 296 295 295 294 290 293 294 290 296 296 295 297 293 293 290 293 296 296 293 292 287 285 286 281 283 291 293 288 297 296 295 293 289 290 292 294 291 284 281 277 273 278 276 278 281 283 286 282 280 280 286 296 297 297 298 298 298 298 301 301 301 302 304 303 301
315 314 315 317 316 318 315 315 315 314 311 306 297 290 281 280 286 285 286 291 295 299 295 298 294 292 291 294 296 295 295 290 296 295 294 293 289 291 291 292 296 296 294 286 288 286 286 285 295 298 297 297 295 299 300 295 291 291 294 296 287 284 287 278 282 282 280 279 279 280 281 283 287 294 295 296 295 297 299 298 298 298 299 300 301 301 303 303
313 313 315 311 313 316 315 315 315 312 305 296 288 285 282 286 283 290 290 300 298 295 295 296 294 290 289 290 295 293 297 294 295 294 292 294 294 291 295 295 294 296 292 286 289 283 286 283 294 297 297 295 296 299 299 298 283 289 291 285 288 294 291 284 282 282 280 279 279 282 284 287 290 294 295 297 296 296 297 298 297 298 298 298 300 301 300 302
310 313 306 311 312 316 315 315 313 307 302 294 286 282 288 291 300 298 299 296 298 297 294 288 289 289 287 287 289 292 294 297 293 292 288 294 291 295 294 296 298 296 297 293 288 294 285 288 291 293 292 295 294 296 299 297 299 291 282 288 295 295 293 286 279 281 279 277 279 280 281 283 282 282 292 292 291 294 294 296 298 298 297 298 300 301 302 301
308 309 308 308 314 315 315 314 311 306 300 292 284 288 293 290 302 302 301 302 298 298 293 290 291 294 289 289 288 291 293 289 291 291 288 293 287 298 295 294 299 298 298 299 289 292 294 283 288 291 292 294 297 297 296 298 297 293 289 298 290 281 281 284 281 275 274 273 276 280 281 283 285 287 289 290 290 292 294 295 296 296 297 298 298 300 301 301
307 306 300 308 316 315 314 313 308 302 296 287 286 286 293 293 302 302 302 300 303 297 291 292 291 292 293 289 291 292 292 286 292 289 286 289 286 295 295 297 296 299 299 298 293 293 293 284 285 289 291 293 294 293 285 288 296 298 297 292 296 287 283 281 282 281 280 275 274 278 279 281 288 288 291 293 293 295 295 295 295 297 297 298 298 300 301 301
303 300 297 314 315 315 314 310 303 299 292 285 286 286 297 293 297 302 302 301 299 297 294 293 294 291 293 293 293 289 293 290 291 290 289 292 290 299 296 300 297 297 299 300 296 298 288 288 281 285 291 292 284 289 287 289 287 286 287 285 289 286 290 285 285 282 279 276 275 275 277 283 288 293 293 294 295 295 296 296 297 297 297 298 299 300 301 302
305 299 299 313 314 314 311 305 297 292 287 286 288 288 292 292 297 297 302 298 299 302 297 298 295 292 293 292 292 294 291 291 292 290 290 291 291 286 297 298 299 297 299 297 295 294 286 283 283 283 283 284 287 293 293 294 293 291 290 288 290 287 283 279 279 288 284 281 277 278 278 285 294 299 295 294 296 296 297 296 298 298 298 299 300 300 302 303
298 290 295 313 314 312 305 295 294 296 288 286 286 288 289 298 296 299 299 297 297 295 302 298 298 297 295 293 295 294 292 290 291 290 291 289 294 293 299 301 299 301 296 291 293 297 294 288 284 282 285 287 290 294 296 294 296 293 292 289 292 289 286 282 277 280 284 282 284 281 278 285 293 295 295 296 296 296 297 296 298 298 299 299 301 303 304 304
295 293 308 312 313 309 301 293 295 290 286 291 297 294 298 297 296 299 297 297 294 299 296 294 297 296 298 297 296 295 294 289 292 290 293 292 294 297 303 300 301 299 298 292 297 296 296 286 283 284 290 291 292 295 294 295 295 291 292 292 290 288 289 286 283 283 283 282 282 281 278 285 293 295 295 297 298 296 297 299 300 298 299 302 304 303 302 302
295 295 301 311 313 309 297 288 288 289 290 293 294 294 297 297 296 295 296 297 294 295 294 295 297 298 296 297 296 294 297 287 293 293 291 294 292 299 302 301 302 297 296 294 292 295 287 285 286 281 281 283 286 289 288 292 291 286 286 291 293 292 292 287 284 285 283 283 284 282 278 284 295 295 295 296 296 297 298 299 299 299 299 301 301 302 302 301
294 298 299 304 308 305 293 295 293 292 291 290 290 290 292 293 296 298 298 296 298 296 295 294 296 297 293 295 294 294 298 294 289 295 296 294 294 298 299 300 300 297 299 298 299 298 289 287 286 280 277 276 275 278 280 282 285 286 287 290 293 292 290 286 285 284 282 284 285 282 283 289 293 294 294 293 294 295 295 296 297 297 299 302 303 301 302 301
291 283 293 296 301 300 299 301 298 294 292 291 289 290 292 290 294 297 298 297 298 298 297 296 296 297 293 292 290 291 293 296 293 289 293 290 290 293 295 295 300 298 295 296 297 296 285 288 289 286 284 282 284 285 288 290 285 284 286 289 291 293 293 291 286 284 283 285 284 286 287 289 290 292 292 293 293 294 294 295 296 296 297 297 298 300 300 300
297 286 288 286 295 295 294 297 295 295 291 295 287 291 289 290 293 294 299 293 298 296 295 296 295 292 291 292 290 291 292 291 292 289 289 291 290 291 296 294 295 294 295 295 296 290 286 286 289 289 288 289 289 291 292 292 287 289 288 288 290 291 291 289 287 286 290 285 282 288 290 287 289 292 293 294 293 293 295 295 295 296 297 298 299 299 299 300
285 290 292 296 291 285 286 288 294 294 295 295 290 294 290 290 291 289 295 296 299 298 293 294 294 295 293 292 292 286 289 289 289 287 291 289 289 292 290 295 293 295 294 293 294 292 287 286 288 289 289 291 291 292 293 292 291 290 290 289 288 290 290 288 289 291 291 286 284 289 289 288 291 293 294 294 296 297 298 297 297 297 297 297 297 298 298 299
292 292 292 296 288 292 292 291 293 293 293 293 291 292 290 290 289 293 293 292 295 294 295 287 290 293 293 295 292 287 289 285 286 289 288 288 286 286 285 288 291 293 293 290 291 290 289 287 288 290 287 289 290 290 291 291 290 291 290 290 290 290 290 290 290 292 291 289 291 291 291 290 293 295 296 296 297 298 299 300 300 300 300 300 299 298 298 299
287 287 286 294 293 291 292 291 291 291 288 292 287 290 291 291 290 293 295 293 288 292 296 291 292 293 294 294 293 289 290 291 291 288 291 291 288 288 287 289 287 288 290 289 291 291 291 286 291 288 286 286 288 289 289 289 289 287 289 290 291 291 291 291 291 291 291 290 292 292 290 290 296 298 297 299 299 300 299 299 300 300 300 299 297 297 298 299
294 296 295 290 287 289 290 291 290 289 286 288 287 289 291 292 291 294 294 297 293 291 294 292 294 294 294 294 293 293 296 294 295 295 296 294 289 293 291 288 294 287 289 288 289 289 290 285 288 287 285 285 288 287 287 286 286 286 286 288 289 289 287 290 288 291 289 288 290 289 288 289 295 298 298 299 299 298 298 299 300 300 300 298 298 300 299 299
295 297 297 293 285 289 287 289 289 289 285 289 288 289 290 291 294 295 290 296 297 297 296 295 295 294 292 292 292 294 297 298 297 298 299 299 300 298 298 297 296 291 287 288 289 288 287 286 286 285 283 284 288 288 286 285 285 284 286 288 290 291 292 292 293 294 293 293 288 286 288 294 296 297 296 297 298 298 298 299 299 300 300 299 299 299 300 300
Wind_Speed
9 9 8 7 7 6 5 4 3 3 1 1 1 1 2 3 4 5 5 6 7 8 9 9 9 9 10 10 10 10 10 3 3 3 6 2 0 2 2 2 3 4 4 4 4 3 3 4 4 2 2 1 0 0 1 0 0 0 1 1 2 5 1 2 0 3 5 4 5 5 5 5 4 2 1 1 1 0 4 1 4 5 6 6 5 7 8 8
9 8 8 8 7 6 5 4 4 3 1 2 1 2 3 3 4 5 6 7 7 8 8 9 9 9 10 10 10 9 7 1 5 8 1 1 1 1 2 2 3 3 5 2 4 4 5 4 2 3 3 2 1 0 0 0 0 1 1 2 3 2 0 4 5 8 3 5 5 4 4 3 4 7 3 2 3 4 3 3 4 4 6 6 5 7 7 8
10 8 8 8 7 6 5 4 4 3 2 1 2 2 3 4 5 5 6 7 7 8 8 9 9 9 10 10 10 9 4 2 4 7 3 1 2 2 2 2 2 2 1 3 3 6 4 6 3 3 3 2 2 2 1 1 0 1 1 3 1 1 4 6 7 4 4 2 7 4 2 1 4 3 3 2 3 7 6 5 5 5 6 7 7 7 7 7
10 10 7 7 7 6 5 4 4 3 2 1 1 3 3 5 5 6 7 7 8 8 9 9 9 9 10 10 10 7 2 2 4 3 2 4 3 2 2 2 2 4 4 5 6 5 4 3 2 3 1 2 2 1 2 2 1 0 0 0 1 3 1 4 6 5 4 5 4 4 2 0 3 1 3 3 2 4 6 6 6 9 8 11 11 9 8 8
11 9 7 8 7 6 5 4 4 4 2 2 1 3 3 4 5 6 6 7 8 9 9 9 9 9 9 9 11 3 1 2 1 2 2 2 3 3 2 3 3 3 4 4 5 4 4 3 3 3 2 2 3 2 1 2 0 0 0 2 3 5 4 3 5 6 4 5 5 4 3 2 3 2 2 2 3 3 1 0 3 4 7 13 12 10 7 8
12 10 8 8 8 7 6 5 5 4 3 2 2 2 3 4 5 5 6 7 7 8 9 10 10 11 10 9 6 3 0 2 0 1 1 2 2 2 3 4 4 3 4 5 4 1 3 3 3 2 2 3 4 3 3 2 1 1 1 3 4 2 4 1 2 3 4 2 2 2 1 3 1 1 4 4 5 1 4 6 7 6 7 12 11 10 8 8
12 12 11 9 8 7 6 6 6 4 4 2 3 3 3 3 4 5 6 7 7 8 9 9 10 11 12 9 3 3 3 1 0 1 2 2 2 2 3 5 4 4 3 3 4 2 3 3 3 4 3 1 5 2 2 3 1 1 1 2 3 4 5 4 3 1 2 6 3 2 2 1 1 3 1 5 5 7 4 6 6 7 7 10 11 9 11 11
11 11 9 9 8 8 7 6 6 6 4 3 4 4 3 2 4 5 6 6 7 7 8 9 9 9 10 2 1 2 3 1 2 3 1 1 5 3 3 3 3 2 3 3 2 4 2 4 5 1 3 1 3 3 2 3 3 3 2 2 1 3 3 3 3 2 2 2 2 4 1 2 3 1 3 3 5 4 1 5 5 5 5 7 9 9 8 8
12 11 9 8 8 6 7 7 7 6 4 3 4 3 3 3 4 5 6 6 7 7 7 8 9 9 5 2 3 3 3 1 3 2 2 2 3 2 3 1 5 3 2 2 2 4 1 2 4 1 1 3 0 4 2 1 2 1 4 4 3 4 4 3 3 2 1 2 1 0 2 2 3 5 4 8 7 6 4 4 5 6 5 5 7 9 8 9
13 11 10 8 8 7 7 8 7 6 5 4 4 3 3 3 4 5 7 7 7 6 6 8 8 8 3 2 1 3 1 7 3 1 2 1 5 5 4 3 4 3 3 1 2 2 1 4 3 3 1 3 0 2 1 1 0 3 3 3 3 5 4 1 1 3 1 0 2 0 2 1 3 3 5 1 3 7 6 6 5 6 5 6 5 7 8 9
14 12 11 10 9 8 6 9 7 7 5 5 3 3 3 5 6 6 7 7 7 6 6 7 8 7 1 3 2 4 1 2 2 1 1 3 4 4 3 5 4 4 5 3 4 3 4 3 5 1 2 2 3 2 2 0 2 1 3 2 5 3 3 3 2 4 3 1 3 1 3 3 3 1 9 4 1 1 6 5 6 6 5 5 6 6 6 7
14 13 12 11 10 9 8 9 9 6 6 5 4 3 4 6 6 7 7 7 6 5 5 5 7 2 2 3 5 1 3 2 2 1 0 2 3 1 3 2 2 3 5 1 3 4 3 3 4 3 0 3 2 3 1 2 1 1 1 2 4 4 3 5 4 4 4 1 2 1 2 5 4 5 15 6 4 4 4 4 5 5 4 5 5 6 6 7
14 13 13 11 11 8 9 9 9 7 7 5 4 4 5 6 6 7 8 7 4 5 5 5 5 2 1 3 1 1 2 1 0 3 1 1 3 1 1 0 2 3 4 2 2 2 3 3 3 1 2 2 2 1 2 2 1 0 1 2 2 3 4 7 3 4 3 2 4 5 2 5 9 16 13 4 6 4 3 4 3 4 5 6 6 6 6 6
13 14 12 12 9 9 9 10 8 7 7 6 5 5 5 6 7 8 7 7 8 5 5 5 2 2 1 0 1 1 3 3 1 3 1 0 0 1 1 0 3 3 4 6 2 1 2 2 3 2 1 4 2 2 1 1 1 1 3 1 1 1 1 5 3 4 2 1 3 1 2 7 8 3 5 3 6 6 5 5 5 5 5 5 6 6 6 6
12 11 11 10 8 9 9 9 8 7 7 6 5 4 5 6 8 8 7 7 4 4 4 3 2 1 2 2 1 1 3 4 2 3 3 2 3 3 2 3 4 4 3 3 1 1 2 2 3 1 2 1 3 1 3 3 3 2 2 2 2 3 1 2 2 6 4 1 3 3 2 8 9 2 3 2 2 2 3 4 5 5 5 6 5 6 6 7
12 11 11 10 10 10 9 10 8 7 6 5 5 5 4 6 7 8 7 7 9 7 3 2 2 1 2 3 1 2 1 2 4 3 1 2 3 2 3 3 1 2 1 2 1 1 2 1 2 1 2 2 1 1 3 1 1 2 3 1 3 3 2 1 3 1 4 4 1 5 4 3 1 2 3 4 5 4 4 4 5 6 5 5 5 6 6 6
12 13 11 12 11 11 10 10 9 7 5 3 5 5 6 7 7 7 8 7 5 3 3 1 2 3 3 1 2 2 4 2 1 1 0 2 2 4 3 3 2 2 1 1 0 2 0 0 0 1 1 2 2 3 1 2 1 3 3 4 1 4 4 3 2 3 0 2 3 5 4 5 7 2 2 2 5 5 5 6 7 6 5 6 6 7 7 7
13 12 12 12 12 12 11 9 8 6 6 4 4 5 5 6 8 8 6 4 3 2 4 3 2 2 2 2 3 4 4 4 3 3 3 1 2 2 1 1 1 3 3 2 0 0 1 0 0 0 3 2 3 3 3 3 5 3 4 2 4 1 2 1 3 4 3 1 2 2 7 8 8 10 10 7 6 7 7 8 7 7 7 7 7 8 8 8
13 12 12 12 13 12 11 10 8 7 5 5 7 7 9 10 6 4 2 3 3 3 1 4 5 6 0 8 5 6 3 2 4 2 2 1 0 1 1 0 3 3 2 2 1 2 1 1 0 3 3 4 4 4 5 3 3 5 2 1 2 1 2 3 1 2 3 3 4 5 7 7 6 7 6 6 7 8 9 8 8 8 8 7 8 8 7 8
12 12 11 10 11 11 10 7 7 7 6 6 4 3 2 2 1 2 2 3 5 1 3 5 8 4 5 6 4 2 3 3 4 1 4 2 1 1 2 3 1 2 1 2 2 1 1 2 3 3 4 5 5 5 4 4 4 2 2 0 1 2 5 3 2 2 1 1 5 6 7 10 9 7 8 9 8 7 8 9 8 6 6 8 9 9 9 8
12 12 12 11 10 9 8 8 6 5 2 5 5 3 4 8 6 5 5 3 6 1 2 4 2 2 4 6 4 6 7 1 1 2 1 1 2 4 3 3 3 3 3 1 3 0 1 1 4 4 7 2 5 10 2 2 4 2 3 3 3 1 3 3 3 1 2 1 2 3 6 10 12 8 7 7 7 12 11 10 10 10 9 8 9 10 11 11
12 12 12 11 10 10 8 7 6 3 2 4 3 3 3 3 2 1 0 4 6 2 2 2 2 4 1 6 2 2 2 4 1 4 1 1 3 4 4 4 5 4 4 4 4 1 1 4 4 5 2 5 6 5 4 2 1 1 0 1 1 4 2 2 5 3 1 2 6 5 6 10 11 9 8 9 11 11 10 10 10 8 9 9 8 9 10 7
13 12 12 11 11 10 9 6 6 3 3 2 3 4 1 1 1 1 0 2 3 1 3 2 2 5 3 2 1 1 4 4 6 5 4 2 4 3 7 5 5 3 5 6 4 3 2 4 10 2 3 5 3 3 2 1 0 0 3 1 3 1 2 2 0 2 4 3 3 4 7 11 13 14 18 16 10 10 10 10 10 10 12 13 11 8 6 6
12 11 11 12 12 10 8 7 6 2 4 4 4 1 3 1 1 1 1 1 2 1 1 2 2 2 5 4 3 3 4 3 6 8 4 3 7 2 2 7 6 5 6 7 7 5 4 1 1 4 2 2 3 1 2 2 2 4 3 3 3 1 2 4 1 1 2 2 1 4 8 8 10 11 9 9 10 9 10 7 10 12 10 10 7 6 6 6
14 13 11 11 11 10 9 8 4 3 2 3 4 3 1 2 1 1 0 1 0 1 4 2 2 2 3 1 3 3 1 3 2 5 5 6 6 3 4 3 3 6 5 6 6 5 3 0 1 4 1 1 3 3 4 4 4 3 5 7 4 2 4 4 4 6 4 2 0 0 6 4 1 9 9 8 1 3 5 7 11 11 9 8 8 9 7 6
14 13 13 13 12 11 11 4 4 3 3 2 1 2 2 2 0 0 0 1 3 2 2 6 4 4 4 3 3 1 4 2 2 2 7 1 4 1 2 2 2 3 7 5 5 3 1 0 0 4 4 3 2 3 4 3 3 1 2 2 1 2 3 3 3 3 3 2 1 1 0 8 2 5 5 6 5 6 4 7 10 8 8 6 8 8 7 7
14 13 13 14 14 12 4 1 4 6 3 1 2 3 1 1 2 2 2 1 5 5 7 1 2 1 2 6 6 3 3 4 1 4 2 3 2 2 3 4 2 1 2 0 3 3 3 1 3 2 4 4 3 3 3 7 3 2 1 2 2 2 1 1 1 0 4 3 5 5 5 6 9 8 11 14 14 11 7 8 7 7 7 7 7 7 6 6
14 14 15 16 16 15 4 4 5 5 2 1 2 1 1 1 1 1 1 2 4 5 3 4 1 3 1 7 8 6 2 10 4 2 4 0 0 1 1 4 7 5 1 4 7 2 2 5 4 4 2 3 6 1 4 7 3 1 1 1 4 3 3 1 1 2 3 5 8 4 4 2 6 3 8 12 8 7 9 9 7 7 6 6 6 4 5 5
14 13 15 16 15 11 4 1 3 3 2 1 2 1 1 2 1 1 2 2 2 3 3 7 3 1 4 7 7 5 3 1 1 2 1 2 3 0 4 5 3 5 5 5 5 1 3 1 2 4 5 5 3 2 3 4 3 2 1 4 4 3 2 1 1 2 3 2 9 6 5 2 15 4 6 5 6 6 9 10 8 7 6 3 5 6 6 5
16 15 15 15 9 4 2 2 1 2 2 2 2 2 1 1 1 1 4 6 4 3 2 2 2 9 8 11 7 6 4 1 3 2 2 2 2 1 1 0 0 3 4 2 1 1 1 3 4 1 3 1 4 4 3 6 3 5 2 5 2 2 1 1 0 1 3 3 6 9 9 2 8 3 10 8 6 8 5 2 3 4 2 4 4 6 5 5
12 16 16 15 7 5 2 2 3 4 3 1 2 3 2 1 2 4 4 4 4 2 2 3 4 10 13 15 9 4 3 4 3 7 4 2 2 2 1 1 2 3 5 1 2 3 1 2 0 0 1 3 3 4 5 2 2 4 2 2 2 1 2 1 0 1 1 7 1 8 9 8 6 3 1 2 3 5 7 5 4 3 1 4 4 5 5 5
5 11 17 12 5 6 8 2 6 5 4 2 2 3 4 4 3 6 4 4 2 5 7 5 5 9 14 9 7 11 9 6 6 8 10 7 7 8 7 8 5 3 3 6 4 2 2 3 2 2 4 4 3 6 3 3 0 0 3 3 6 2 1 1 1 2 5 8 2 1 7 1 17 6 1 1 1 2 2 2 2 0 1 3 5 5 5 5
4 4 14 11 7 6 4 2 6 6 5 1 2 2 3 4 7 7 7 7 2 4 3 8 11 11 9 8 4 6 5 7 7 5 6 4 8 9 9 9 11 9 6 6 4 2 3 3 5 3 4 4 3 8 3 1 3 4 7 7 5 2 2 3 4 2 3 4 0 2 4 7 9 4 8 13 15 7 4 4 1 2 2 4 2 5 5 5
6 3 1 6 7 6 3 5 5 9 7 1 3 3 1 6 6 10 12 8 1 3 6 4 10 7 12 11 7 9 4 2 9 5 7 5 5 7 7 10 7 7 0 3 8 7 3 3 6 6 3 6 5 7 9 6 9 9 3 8 8 5 4 4 4 5 7 4 1 2 3 8 2 2 2 1 2 6 7 4 4 4 5 5 2 3 5 5
4 3 1 2 5 4 4 4 5 8 7 4 5 8 11 10 8 11 12 6 1 2 3 6 9 10 8 3 1 10 2 3 8 7 7 9 9 8 9 10 10 6 3 2 4 3 13 6 2 16 2 14 12 6 4 5 2 3 3 0 3 8 0 3 1 1 1 2 3 3 7 2 4 2 3 3 5 4 3 7 6 6 6 2 3 5 5 6
1 2 3 2 4 6 7 6 4 6 8 8 7 8 13 11 9 8 4 6 2 5 8 6 4 7 7 5 2 8 5 3 7 5 5 9 7 9 7 6 12 16 9 10 3 3 2 4 2 4 5 13 10 5 3 7 5 5 4 6 6 1 2 1 2 2 2 2 11 2 8 8 4 12 10 14 13 12 3 2 4 7 6 5 6 8 5 5
1 2 3 3 4 6 7 7 6 9 9 10 9 10 11 7 1 2 1 6 7 14 9 9 5 7 8 6 5 5 2 4 5 5 5 4 5 7 7 8 10 12 14 11 4 2 6 2 3 1 3 1 0 2 0 2 1 7 3 6 2 3 2 3 4 1 2 7 8 4 11 10 1 13 1 6 7 8 4 8 7 7 6 7 8 7 9 5
2 2 4 6 5 9 8 7 9 6 8 11 11 15 3 7 1 3 2 1 11 9 6 8 3 8 6 9 7 8 4 8 8 6 5 10 5 9 12 5 10 13 18 10 5 2 5 1 2 1 4 2 3 1 1 1 4 2 5 1 6 2 4 2 3 5 5 4 5 5 5 10 10 13 5 4 4 6 7 7 7 7 7 8 7 9 12 3
2 2 3 7 10 12 10 11 8 7 4 4 7 13 4 10 1 3 4 5 1 7 9 7 4 6 6 9 5 7 10 8 9 8 6 3 5 7 15 11 6 14 14 14 9 2 3 6 1 2 1 0 0 3 9 7 1 0 1 1 0 1 2 6 6 1 3 6 2 12 3 15 4 7 6 12 7 10 9 7 8 10 9 8 7 8 9 7
1 1 4 5 12 12 11 11 8 8 5 8 6 5 3 6 4 2 6 6 1 1 6 7 7 5 9 6 11 7 8 8 11 9 8 5 7 2 9 10 5 6 11 13 8 5 2 4 6 0 5 2 2 5 9 9 9 2 1 2 0 1 1 3 2 4 4 2 4 3 10 12 4 6 6 10 10 10 10 10 7 8 8 7 8 8 6 6
1 2 1 3 10 11 11 7 8 10 5 0 1 1 1 3 2 5 2 9 3 1 5 2 2 10 7 7 8 10 7 9 8 7 6 5 10 3 7 10 8 5 5 6 9 5 2 3 8 3 0 5 7 7 11 12 16 15 15 13 15 10 5 3 7 1 1 2 3 1 12 15 3 0 3 3 3 7 8 8 8 7 6 6 6 6 6 4
4 3 2 9 10 14 11 7 2 2 4 8 9 8 5 6 3 5 5 1 3 2 3 1 2 2 5 11 6 9 7 9 9 8 7 10 10 9 2 14 11 11 11 8 13 13 10 3 4 6 9 10 4 0 1 2 1 3 7 9 9 6 4 4 6 4 0 3 2 3 2 24 3 5 2 2 3 4 5 5 6 4 3 3 3 3 2 2
4 4 4 9 12 14 9 8 4 4 0 2 6 3 3 3 5 4 6 2 3 2 1 1 2 1 2 0 10 7 11 6 12 10 8 11 8 9 2 10 10 11 10 3 6 1 4 1 3 3 3 1 2 1 2 2 2 1 3 1 4 8 9 8 6 5 6 3 5 6 6 16 3 4 3 5 4 5 4 4 1 2 2 2 1 2 4 2
3 4 1 3 11 8 10 10 8 8 5 3 4 4 6 3 6 4 7 6 6 2 4 0 2 2 2 2 3 5 13 5 9 12 8 7 6 3 4 3 12 7 10 5 9 8 5 3 6 4 0 1 0 1 2 1 2 0 2 3 4 5 8 4 1 1 2 8 10 8 12 18 0 2 2 3 1 1 1 0 1 2 4 3 3 4 5 5
3 2 2 2 6 9 10 6 8 8 7 7 7 8 6 5 4 10 6 5 4 4 3 6 3 2 1 2 2 2 3 4 3 10 5 5 3 1 6 8 3 6 5 2 1 7 6 6 9 8 11 11 8 9 9 5 8 4 4 7 9 8 7 6 8 5 8 8 11 7 11 18 7 4 3 2 4 3 4 3 2 4 5 3 1 3 5 5
4 3 4 3 3 6 9 5 5 7 8 9 9 8 10 8 5 9 8 5 7 3 3 2 3 2 1 3 5 2 2 4 1 2 6 1 1 1 4 6 6 3 2 6 3 6 2 2 8 11 13 14 12 2 4 8 4 6 8 12 10 11 11 8 4 7 14 12 10 11 16 20 20 9 1 0 0 3 4 4 4 4 5 5 5 5 5 3
2 4 4 3 4 7 5 8 9 6 7 9 6 6 11 12 5 4 10 6 7 8 3 6 3 4 4 4 3 3 1 4 1 1 1 2 1 0 0 4 4 5 4 4 3 5 2 3 9 12 13 12 6 1 5 16 13 14 14 13 15 13 13 12 12 16 15 8 15 15 13 13 27 19 10 11 6 5 5 4 4 5 6 7 7 8 8 5
5 4 4 0 1 4 9 9 8 10 9 9 6 4 11 12 10 6 7 10 4 10 6 2 7 8 8 13 9 5 2 3 1 1 0 0 2 0 1 2 2 3 1 1 2 3 4 6 6 6 11 12 8 1 4 6 10 12 16 15 16 16 13 16 18 20 15 14 19 16 9 16 24 21 5 6 8 11 10 7 6 5 4 3 4 6 7 7
5 3 4 2 2 1 2 0 11 10 11 12 5 8 8 12 14 12 7 8 6 5 13 6 13 17 16 11 9 7 5 3 8 5 2 1 4 1 1 1 1 5 1 1 2 0 2 5 4 3 5 6 8 8 4 5 3 2 5 9 11 14 18 20 22 23 22 15 13 15 17 19 16 17 13 5 6 10 11 8 9 11 13 12 9 8 8 8
7 6 3 1 1 5 1 4 3 6 9 8 7 9 9 10 13 11 7 9 6 9 11 15 13 15 16 14 13 11 12 13 11 9 4 5 1 2 2 3 1 3 2 1 1 2 4 4 4 1 2 7 10 7 3 3 4 4 4 5 3 8 16 21 20 17 12 13 16 19 19 21 18 15 14 13 11 9 12 15 13 14 15 9 6 6 7 8
2 1 3 1 4 6 5 2 3 4 3 4 7 7 8 12 14 11 10 11 14 10 12 18 17 10 12 14 14 15 13 13 14 15 11 11 10 5 6 2 6 3 1 2 1 1 3 3 3 2 4 10 13 8 7 3 3 5 5 7 13 15 13 11 11 8 11 17 17 12 14 18 20 11 9 16 16 10 13 17 15 10 9 6 7 11 11 8
6 3 2 1 4 3 5 4 5 2 6 5 6 8 7 9 10 10 9 7 12 13 13 18 16 10 10 15 18 19 17 14 14 14 10 5 8 6 9 5 8 7 5 4 2 4 3 3 4 3 7 12 15 5 5 4 2 7 12 17 22 19 12 5 6 11 18 14 10 11 17 15 15 14 14 15 17 15 12 13 16 17 13 8 8 10 12 10
Wind_Direction
173 179 198 197 189 178 184 188 183 195 193 237 280 12 1 358 0 358 2 2 357 357 350 348 349 343 339 339 339 339 335 297 251 227 223 63 347 50 62 333 346 328 337 305 256 238 237 216 213 153 205 180 202 24 250 144 333 307 257 213 258 234 81 160 112 129 160 134 154 167 183 139 129 166 119 80 99 242 121 202 101 65 59 98 111 118 119 126
173 184 197 198 188 177 190 195 192 201 218 291 335 315 6 2 351 352 359 360 358 350 349 348 342 342 337 337 341 336 328 272 265 250 341 72 134 51 46 25 328 340 301 247 228 212 246 168 175 189 212 187 212 98 239 161 272 183 245 194 252 15 333 346 63 37 33 108 159 161 189 217 148 147 163 149 190 184 179 194 149 140 108 103 121 121 140 149
176 181 201 197 194 189 193 201 203 209 224 251 303 319 345 353 347 345 354 356 350 349 347 346 343 336 338 338 334 328 315 249 256 246 104 334 57 47 40 23 310 299 304 314 315 311 305 329 134 216 235 140 239 150 254 152 159 254 44 243 65 92 62 29 47 68 43 359 131 144 158 247 114 141 134 213 193 170 203 190 180 183 178 164 153 154 149 170
173 170 195 204 206 199 197 201 204 209 210 253 298 324 338 343 338 345 350 346 347 344 345 344 339 339 336 335 331 315 275 300 251 90 76 29 28 8 21 313 298 280 256 249 260 284 317 289 279 238 209 255 125 95 177 181 114 27 130 13 22 307 81 27 46 39 31 4 110 102 75 301 135 124 159 177 269 219 203 206 179 196 186 177 163 161 158 169
162 173 181 211 213 208 212 215 224 224 215 241 311 320 337 327 330 334 343 344 339 341 343 340 340 338 338 330 315 283 314 292 160 53 33 359 354 12 321 300 284 289 258 281 286 255 252 240 217 245 268 196 138 139 208 112 6 244 183 96 5 359 74 20 65 18 359 335 78 94 127 213 78 50 187 235 202 229 242 256 212 192 200 161 159 164 159 170
170 164 193 210 217 220 220 222 229 230 237 265 306 318 314 315 320 329 336 344 337 336 337 342 339 339 336 325 307 250 302 206 311 123 287 4 337 327 306 292 284 276 265 244 249 188 240 238 218 224 206 235 150 191 134 102 110 245 138 84 56 28 96 60 77 359 343 21 94 162 9 49 109 211 188 225 230 189 118 94 76 60 91 140 141 146 167 175
172 169 184 199 220 224 222 228 229 236 241 280 285 290 284 301 323 330 336 336 335 331 336 341 343 340 332 313 238 256 227 351 94 178 147 323 288 262 300 275 248 259 259 255 230 231 204 232 213 198 228 239 166 137 137 125 163 301 86 111 44 47 77 50 90 38 19 3 45 15 306 344 124 253 7 200 224 246 100 99 97 82 94 124 140 164 173 183
166 170 178 189 202 227 229 230 236 242 246 270 279 279 302 316 337 338 334 332 330 328 335 341 341 343 346 292 169 203 212 135 45 181 154 256 260 220 206 267 249 250 257 257 262 217 177 246 201 245 262 306 159 137 166 144 197 226 148 111 118 89 89 92 110 83 66 56 12 4 2 255 262 300 31 266 257 250 156 114 115 114 121 143 148 171 177 184
163 169 176 182 195 205 243 240 236 237 248 263 264 272 298 347 347 346 341 340 335 331 333 337 341 342 314 292 244 280 202 58 357 15 85 345 326 266 178 259 194 240 263 245 319 327 335 208 258 190 353 125 101 103 214 198 163 323 86 107 135 96 114 120 107 113 142 100 19 65 264 267 21 1 267 241 236 229 216 145 142 135 138 176 172 177 180 187
167 171 176 174 167 173 224 248 254 237 246 258 254 287 312 347 348 345 338 338 333 333 333 334 346 335 313 217 206 252 134 251 285 104 31 327 300 279 223 359 344 304 258 74 285 321 250 356 28 0 16 39 309 73 54 32 148 302 119 118 124 128 123 228 158 139 142 115 152 262 276 222 75 71 283 239 251 206 202 177 154 151 177 186 195 186 188 189
168 171 169 166 173 187 207 234 249 241 251 252 270 297 332 337 334 336 335 331 333 324 329 334 348 332 234 230 253 217 225 279 317 23 19 267 321 14 19 357 353 334 325 99 37 16 349 350 347 323 34 118 92 85 21 93 297 15 102 83 103 155 118 161 195 136 142 156 168 235 278 324 126 106 244 216 302 102 163 178 175 172 192 199 200 204 200 198
169 168 169 168 178 180 210 228 233 240 253 247 255 290 318 321 327 332 332 333 319 346 345 341 343 313 272 277 233 2 268 12 298 318 50 347 65 146 335 24 325 325 344 11 79 27 6 336 338 2 288 338 137 110 98 227 252 118 276 182 176 151 168 174 179 169 197 119 228 103 300 268 201 225 242 212 155 164 183 188 205 194 200 213 212 201 202 205
173 167 171 173 174 189 210 222 228 232 246 238 266 295 308 318 321 327 327 325 344 331 336 358 325 241 323 210 70 236 297 314 32 276 96 102 130 94 122 6 311 21 359 33 69 7 338 317 357 339 53 285 89 164 165 268 99 225 192 319 147 180 238 184 181 112 145 99 152 99 325 249 223 229 250 169 161 149 173 215 214 203 200 205 205 204 206 202
173 172 174 179 177 205 211 219 223 227 232 237 255 277 298 307 315 316 319 316 311 309 339 343 346 284 275 35 92 59 332 320 216 232 119 251 225 6 108 56 44 49 37 80 62 282 312 304 303 101 85 32 144 248 142 149 104 199 168 130 255 147 287 134 140 138 170 126 165 73 211 294 285 285 221 131 161 156 197 214 226 232 232 210 201 205 207 211
179 175 182 177 185 195 207 219 219 220 222 233 253 271 284 301 313 311 309 304 304 327 329 308 225 240 209 88 284 87 318 286 253 109 23 327 131 115 93 65 49 47 55 65 95 268 258 298 342 184 55 287 93 138 160 171 183 259 83 257 226 218 129 228 126 156 183 227 208 140 247 249 271 145 92 96 74 157 217 233 240 236 225 208 196 203 211 217
173 174 173 169 185 197 201 209 211 212 219 235 253 275 292 293 296 300 294 286 293 284 260 254 160 295 315 199 85 316 269 204 135 52 92 304 3 105 106 101 146 127 127 35 316 296 277 0 54 358 126 353 237 216 202 116 214 223 167 270 169 204 170 149 251 62 31 119 230 181 229 325 85 191 140 164 158 184 204 240 243 241 240 232 200 201 212 216
171 172 174 171 178 189 195 203 210 223 231 268 289 272 265 269 283 292 283 289 275 198 223 332 151 163 256 6 295 216 188 84 308 147 233 36 330 121 132 151 125 102 42 208 177 310 4 69 252 353 317 226 199 233 210 222 270 210 179 223 240 179 171 192 10 276 167 257 185 221 253 236 268 261 231 230 194 184 206 222 230 238 237 225 219 209 209 210
175 176 180 177 183 178 185 195 206 227 225 283 281 286 282 291 297 300 243 227 231 217 229 208 243 162 237 30 196 167 103 117 138 108 26 344 329 262 144 169 144 151 196 154 75 146 62 55 89 222 147 251 231 214 147 203 206 198 184 218 293 272 244 246 175 191 186 159 262 228 223 243 244 263 272 248 211 210 221 226 231 234 235 238 226 220 215 211
175 177 176 178 183 180 178 193 200 211 229 244 257 266 273 273 254 240 239 165 165 108 187 181 176 184 255 176 104 89 61 91 80 113 179 215 224 313 345 327 211 158 183 220 144 239 167 63 93 322 186 192 219 209 177 265 32 11 75 154 350 329 189 227 74 203 177 189 209 229 247 259 248 258 256 252 241 227 236 236 237 231 227 233 238 238 229 221
175 176 175 178 178 181 182 186 194 204 212 230 220 226 197 153 166 136 177 229 245 81 333 151 185 85 113 89 87 351 171 251 127 306 113 358 125 220 215 198 72 331 214 186 140 273 45 167 184 200 218 189 206 217 222 52 25 5 349 79 293 344 312 79 91 114 271 351 258 246 263 269 265 253 256 261 267 269 265 264 258 248 233 230 233 237 240 237
177 177 181 178 172 170 173 179 188 202 214 264 235 223 172 176 151 179 159 232 245 51 29 43 10 38 82 102 129 164 120 55 297 146 175 35 315 178 177 182 145 213 230 216 118 128 86 242 228 217 226 259 216 193 144 109 45 18 7 13 317 252 250 276 162 189 7 56 287 300 297 279 276 264 256 259 259 259 254 254 252 250 246 240 233 235 236 238
177 178 178 176 174 171 173 175 174 161 303 263 241 230 12 21 322 0 94 184 261 141 102 69 246 92 86 127 151 11 314 119 161 135 129 234 192 192 150 205 172 203 175 90 84 82 112 202 232 227 119 92 43 57 61 24 338 112 190 286 281 277 259 48 80 111 122 103 269 268 258 270 273 273 263 241 238 242 241 237 245 247 248 246 240 235 233 231
178 179 174 170 171 172 169 173 156 176 212 210 190 251 42 37 285 136 247 316 171 100 178 197 178 134 109 14 204 237 188 153 165 171 172 187 162 246 143 196 187 215 136 158 156 173 216 225 236 97 102 87 70 71 66 156 151 183 165 311 221 234 79 286 220 190 185 193 252 305 301 273 273 268 261 258 243 248 246 247 251 240 246 247 244 240 236 223
180 172 168 166 165 165 165 154 155 178 226 237 262 63 128 216 325 273 246 215 159 176 210 178 243 177 153 152 169 172 196 167 136 173 133 172 181 172 203 191 196 199 172 192 195 193 200 71 36 110 87 121 145 154 155 136 217 215 213 220 234 220 212 181 256 209 230 218 36 313 280 267 236 255 277 271 244 229 245 243 249 250 246 250 256 258 229 230
179 173 164 158 158 153 149 153 161 216 201 247 269 280 256 88 290 0 60 228 267 149 305 1 106 274 140 342 130 182 178 15 341 143 161 188 162 118 221 190 225 209 205 190 212 233 232 137 176 101 104 151 144 158 194 161 241 207 215 199 218 285 321 360 3 10 347 303 199 62 348 299 249 214 239 277 278 222 229 221 236 240 246 245 247 246 245 244
180 176 158 153 151 147 151 180 187 182 185 203 105 43 62 118 18 196 45 212 247 142 42 201 105 210 120 146 98 229 56 200 11 125 145 215 346 204 89 248 152 220 200 185 212 203 197 357 210 144 147 159 190 197 199 164 204 258 277 309 234 295 30 20 335 34 325 297 239 215 172 270 334 288 249 253 242 233 241 218 240 240 239 228 229 235 228 221
179 172 151 150 150 152 162 113 107 136 141 236 49 95 110 106 35 5 135 18 281 167 157 341 135 247 26 161 150 150 140 193 176 76 130 358 189 25 182 172 81 10 304 150 40 258 90 207 71 114 113 137 153 216 211 165 164 245 291 355 73 47 114 296 38 213 246 305 282 185 156 269 286 241 226 234 243 255 258 254 246 240 230 225 224 218 205 196
181 167 153 157 162 178 359 113 141 160 94 73 227 97 118 61 283 212 57 157 256 130 152 234 231 332 344 171 167 164 28 121 137 202 12 146 9 64 37 178 174 175 226 105 197 357 139 165 155 156 162 154 182 215 182 173 164 198 281 358 76 78 60 37 77 315 293 11 300 134 170 288 256 251 200 196 226 234 237 242 251 253 247 235 228 193 161 156
179 165 161 164 174 194 309 47 167 161 87 163 84 165 115 130 271 185 193 218 143 116 331 130 331 164 115 166 195 138 142 358 295 79 277 46 15 134 193 246 230 189 194 182 207 111 2 163 192 171 156 194 104 14 4 178 140 266 166 61 84 62 40 81 348 41 323 28 275 151 187 218 284 234 167 195 194 201 221 230 232 241 240 184 111 104 107 96
173 169 167 165 160 214 311 29 280 85 152 113 169 150 214 206 119 167 126 248 132 200 106 98 196 165 160 157 195 164 157 79 43 127 153 161 168 285 353 50 283 228 188 180 46 88 108 189 165 93 196 94 117 46 41 63 94 144 152 79 45 45 82 0 41 68 34 268 251 157 198 159 280 294 171 150 209 192 205 223 237 234 194 139 138 131 132 130
181 169 170 158 167 175 160 210 179 125 98 183 166 201 153 60 180 165 191 215 13 89 81 142 132 146 161 163 175 188 151 115 150 145 127 198 102 328 193 23 357 47 31 2 289 142 142 42 299 130 25 130 104 71 16 15 113 129 116 122 91 6 41 29 339 54 145 263 267 176 177 171 224 297 281 213 179 183 170 183 216 236 184 134 132 132 137 143
18 183 169 171 158 151 173 208 134 131 126 172 190 141 161 131 315 205 196 59 202 176 177 177 175 163 181 175 146 173 164 134 161 168 154 176 155 176 205 183 152 125 260 187 238 61 219 205 141 39 291 149 142 90 17 22 348 100 133 132 118 210 60 310 90 258 198 235 280 15 166 325 241 226 255 253 73 210 225 183 191 317 319 142 160 154 150 145
65 0 184 179 156 178 205 68 125 128 130 161 146 140 159 154 204 201 231 147 255 129 185 151 163 171 171 167 171 160 146 166 166 195 136 175 166 209 203 195 182 176 200 181 185 107 267 144 164 143 37 254 181 141 170 43 234 183 165 156 123 178 184 236 216 209 252 272 342 86 22 245 270 301 211 246 252 227 212 243 245 250 234 261 190 172 165 169
187 100 193 196 187 184 143 138 144 139 132 175 151 95 39 202 214 192 213 195 201 338 135 144 143 147 166 183 173 155 159 205 153 179 158 162 189 192 216 235 200 223 313 120 185 176 219 305 234 128 252 163 203 207 176 166 169 200 184 160 171 162 172 210 175 202 217 229 227 279 94 240 74 243 326 319 298 223 214 216 214 206 219 224 211 185 174 174
153 133 192 185 213 202 140 150 150 150 142 135 135 176 178 208 212 196 214 186 80 83 73 128 139 150 185 173 85 171 129 172 173 162 180 164 203 204 188 203 214 202 186 227 208 145 209 225 204 182 167 156 185 210 174 116 126 215 215 263 277 225 93 198 187 229 324 1 329 223 211 226 189 276 256 292 320 330 201 224 229 253 263 270 273 242 211 195
117 181 143 229 201 184 144 147 122 78 101 99 134 183 204 191 204 187 223 113 165 132 133 122 129 159 176 174 326 183 326 124 184 162 206 203 204 203 196 191 197 195 181 200 153 164 112 227 60 68 130 173 191 165 204 152 189 208 134 218 199 324 146 357 332 54 95 29 255 168 287 263 304 266 241 251 250 242 235 264 235 240 249 265 262 264 246 209
229 148 190 189 223 149 150 144 129 127 120 137 158 205 213 216 237 188 46 195 157 134 147 140 206 169 178 192 184 195 156 70 178 156 206 166 258 216 213 220 188 196 210 182 237 186 143 202 322 103 177 315 22 273 245 36 107 105 190 222 86 53 94 137 207 53 183 219 262 126 241 284 347 290 260 212 234 254 193 227 225 228 235 241 249 262 267 221
310 210 248 227 172 147 146 142 132 144 147 155 187 208 205 237 208 356 23 311 135 154 160 174 183 176 182 173 192 177 190 170 182 178 207 166 252 192 206 215 192 197 204 205 190 243 158 233 252 353 0 345 345 38 23 9 49 122 176 333 137 250 260 238 89 249 240 241 281 254 249 263 219 246 299 297 215 233 218 223 219 230 234 235 247 260 263 257
292 302 257 203 149 152 150 139 137 140 133 164 182 200 218 225 195 357 17 333 277 170 190 188 152 211 174 194 168 173 160 180 165 199 162 197 219 192 200 190 204 199 200 190 208 229 141 204 267 329 352 142 45 149 197 209 3 101 17 356 143 98 196 151 193 195 135 243 227 276 296 265 150 235 192 245 214 209 211 212 215 215 216 221 233 247 255 267
254 223 249 125 147 141 144 142 145 162 134 183 186 233 352 251 247 313 10 0 349 282 207 193 190 167 202 204 163 157 198 194 169 195 196 173 213 206 188 186 192 195 185 188 212 129 274 153 239 227 313 102 193 207 215 164 161 230 178 243 177 151 254 114 300 174 172 192 212 282 290 263 231 210 193 209 218 203 188 204 209 215 216 210 221 232 242 239
221 301 308 85 138 134 134 155 163 180 156 67 48 221 239 218 269 264 342 34 1 75 22 339 221 206 170 197 186 165 173 189 186 194 196 208 187 246 187 177 174 184 162 175 196 165 200 152 200 117 20 227 229 206 207 191 187 181 185 203 192 163 161 176 261 164 190 159 231 243 260 276 191 319 170 166 186 164 173 171 194 213 205 213 230 233 223 227
205 211 208 136 136 139 142 190 217 97 130 177 196 166 193 217 292 266 266 32 39 345 343 280 266 295 182 195 186 175 159 186 192 195 201 206 206 220 180 172 179 158 157 177 195 197 183 158 153 178 207 207 195 351 140 78 244 243 197 226 197 186 169 164 205 243 102 247 254 223 0 269 182 190 153 124 124 148 175 150 145 173 200 232 242 226 207 176
220 217 41 153 155 150 153 216 163 132 183 255 81 161 155 183 221 204 215 186 243 148 310 194 285 338 344 49 200 182 169 191 184 204 195 210 228 205 185 187 160 167 163 196 198 257 169 145 162 239 104 91 31 147 47 51 72 345 273 18 150 193 192 196 192 185 182 178 209 242 228 264 65 47 74 74 84 94 65 81 109 79 355 337 167 164 161 151
234 232 138 199 176 176 174 203 197 180 195 139 186 195 182 209 192 198 215 193 186 185 192 224 18 62 304 17 337 219 165 209 205 199 214 189 222 37 319 211 164 169 164 202 176 179 180 209 171 161 208 298 29 359 334 23 65 164 205 202 223 209 199 207 45 19 222 200 205 174 234 257 350 195 207 150 80 86 104 327 78 308 284 244 193 202 202 191
247 262 272 151 195 196 206 201 208 196 186 177 164 204 178 224 226 221 204 203 172 207 227 245 212 41 357 349 312 326 262 219 177 221 200 193 192 356 349 13 215 167 155 5 90 178 178 167 171 179 202 213 215 203 200 185 205 208 208 212 206 199 182 126 215 195 231 233 211 212 249 260 230 43 57 51 156 200 228 223 233 204 221 232 224 238 234 200
199 223 180 181 214 217 230 271 286 226 195 177 190 198 185 202 210 211 194 223 168 175 194 100 24 106 35 9 352 350 311 11 78 226 190 170 64 358 345 330 15 76 53 102 95 152 165 212 193 194 201 216 226 216 185 137 96 185 219 201 208 202 201 189 162 193 219 231 237 230 234 260 267 230 343 276 340 226 248 267 254 271 276 262 262 267 272 257
310 232 168 185 138 248 258 224 224 232 230 175 209 152 201 207 182 178 184 226 182 183 185 191 175 192 217 221 263 298 222 316 343 36 305 106 64 133 201 26 46 79 40 63 3 78 107 210 215 214 225 232 224 171 200 159 178 202 204 209 207 199 198 200 194 220 213 219 246 237 231 250 262 253 231 256 254 262 250 240 262 256 240 232 233 245 247 247
231 239 240 332 171 197 214 239 222 226 239 204 228 176 199 199 198 196 171 216 168 185 194 195 210 211 202 209 198 221 234 248 62 251 81 28 87 54 40 5 59 347 63 82 345 136 149 203 231 217 237 245 246 70 146 187 187 195 205 204 200 201 196 202 219 228 215 209 230 241 222 235 254 265 234 213 248 256 260 255 245 250 276 281 277 262 255 250
253 328 252 304 232 272 203 96 186 217 233 223 242 228 217 202 204 198 171 183 205 193 191 205 206 206 209 201 197 215 215 201 254 239 180 183 169 114 55 330 328 27 71 52 44 86 124 235 233 212 256 265 264 246 226 245 273 255 230 224 212 198 204 207 218 224 224 230 240 253 255 252 260 275 270 250 268 282 287 294 297 298 286 278 272 263 250 247
193 207 236 282 274 296 42 104 128 176 226 215 233 219 223 221 218 199 188 170 182 208 187 216 213 200 202 199 195 207 204 207 211 231 213 184 276 161 223 194 149 344 39 127 122 320 138 258 210 41 291 269 262 269 285 271 280 277 299 316 265 213 214 216 222 230 244 257 252 253 260 267 261 261 286 283 270 286 297 287 279 275 280 281 266 260 247 243
280 220 337 308 234 229 230 220 171 155 194 200 225 239 238 230 231 205 212 189 193 184 185 210 215 196 196 198 202 217 215 204 215 220 214 179 221 196 169 267 142 147 124 85 70 322 119 271 45 86 232 263 260 251 253 265 278 265 259 259 265 252 237 225 227 216 219 230 237 250 258 259 266 275 274 280 280 267 268 275 277 275 272 281 287 277 268 253
238 266 322 315 256 219 225 206 204 192 230 183 188 222 223 232 237 225 248 218 208 203 192 204 209 197 200 198 205 210 211 205 210 221 223 187 208 216 187 199 159 151 189 170 146 126 149 146 164 139 212 242 259 242 247 239 254 265 246 238 231 240 251 251 234 216 223 224 233 232 242 252 267 272 270 268 272 275 267 275 285 279 273 263 257 265 266 260